Oakland, CA

6:31 PM PDT on October 22, 2017 (GMT -0700)
Metro Oakland International

Weather History for KOAK - March, 2014

Change the Weather History Date:

Thursday, March 27, 2014

  Actual Average Record
Temperature  
Mean Temperature 61 °F 55 °F  
Max Temperature 65 °F 64 °F 82 °F (1951)
Min Temperature 56 °F 47 °F 40 °F (1959)
Degree Days  
Heating Degree Days 4 10  
Month to date heating degree days 154 294  
Since 1 July heating degree days 1975 2316  
Cooling Degree Days 0 0  
Month to date cooling degree days 1 0  
Year to date cooling degree days 1 0  
Growing Degree Days 10 (Base 50)    
Moisture  
Dew Point 46 °F    
Average Humidity 61    
Maximum Humidity 77    
Minimum Humidity 44    
Precipitation  
Precipitation T in 0.08 in 1.49 in (1963)
Month to date precipitation 1.20 2.76  
Year to date precipitation 4.90 10.70  
Since 1 July precipitation 6.97  
Sea Level Pressure  
Sea Level Pressure 30.07 in    
Wind  
Wind Speed 9 mph (WSW)    
Max Wind Speed 17 mph    
Max Gust Speed 25 mph    
Visibility 10 miles    
Events      
T = Trace of Precipitation, MM = Missing Value Source: NWS Daily Summary

Daily Weather History Graph

Daily Weather History Graph

Search for Another Location

Airport or City:

Trip Planner

Search our weather history database for the weather conditions in past years. The results will help you decide how hot, cold, wet, or windy it might be!

Date:

Astronomy

Mar. 27, 2014 Rise Set
Actual Time 7:01 AM PDT 7:27 PM PDT
Civil Twilight 6:35 AM PDT 7:53 PM PDT
Nautical Twilight 6:04 AM PDT 8:24 PM PDT
Astronomical Twilight 5:33 AM PDT 8:56 PM PDT
Moon 4:53 AM PDT (3/27) 4:24 PM PDT (3/27)
Length of Visible Light 13h 18m
Length of Day
12h 25m
Waning Crescent, 12% of the Moon is Illuminated
Mar 27
Waning Crescent
Mar 30
New
Apr 7
First Quarter
Apr 15
Full
Apr 22
Last Quarter

Hourly Weather History & Observations

Time (PDT) Temp. Dew Point Humidity Pressure Visibility Wind Dir Wind Speed Gust Speed Precip Events Conditions
12:53 AM 55.9 °F 46.9 °F 72% 29.99 in 10.0 mi WSW 9.2 mph - N/A   Overcast
1:53 AM 55.9 °F 46.9 °F 72% 29.99 in 10.0 mi WSW 9.2 mph - N/A   Mostly Cloudy
2:53 AM 55.9 °F 46.9 °F 72% 29.99 in 10.0 mi SW 9.2 mph 19.6 mph N/A   Mostly Cloudy
3:53 AM 55.9 °F 46.9 °F 72% 29.98 in 10.0 mi WSW 12.7 mph - 0.00 in   Light Drizzle
4:53 AM 55.9 °F 48.0 °F 75% 29.99 in 10.0 mi West 9.2 mph - 0.00 in   Mostly Cloudy
5:53 AM 55.9 °F 46.9 °F 72% 30.01 in 10.0 mi WSW 10.4 mph - N/A   Overcast
6:53 AM 55.9 °F 46.9 °F 72% 30.02 in 7.0 mi West 6.9 mph - N/A   Overcast
7:53 AM 55.9 °F 48.0 °F 75% 30.05 in 10.0 mi West 10.4 mph - N/A   Overcast
8:27 AM 57.2 °F 48.2 °F 72% 30.06 in 10.0 mi West 8.1 mph - N/A   Overcast
8:53 AM 57.0 °F 46.9 °F 69% 30.06 in 10.0 mi WSW 8.1 mph - N/A   Overcast
9:53 AM 59.0 °F 48.0 °F 67% 30.09 in 10.0 mi SSW 6.9 mph - N/A   Mostly Cloudy
10:53 AM 60.1 °F 48.0 °F 64% 30.10 in 10.0 mi South 8.1 mph - N/A   Scattered Clouds
11:53 AM 60.1 °F 48.0 °F 64% 30.11 in 10.0 mi SE 3.5 mph - N/A   Mostly Cloudy
12:53 PM 61.0 °F 48.0 °F 62% 30.11 in 10.0 mi SW 4.6 mph - N/A   Mostly Cloudy
1:53 PM 64.0 °F 44.1 °F 48% 30.10 in 10.0 mi West 10.4 mph - N/A   Mostly Cloudy
2:53 PM 64.0 °F 43.0 °F 46% 30.09 in 10.0 mi West 11.5 mph - N/A   Scattered Clouds
3:53 PM 64.0 °F 43.0 °F 46% 30.09 in 10.0 mi West 13.8 mph - N/A   Mostly Cloudy
4:53 PM 64.0 °F 44.1 °F 48% 30.08 in 10.0 mi West 10.4 mph - N/A   Mostly Cloudy
5:53 PM 62.1 °F 44.1 °F 52% 30.08 in 10.0 mi West 11.5 mph - N/A   Mostly Cloudy
6:53 PM 61.0 °F 45.0 °F 56% 30.09 in 10.0 mi WNW 11.5 mph - N/A   Mostly Cloudy
7:53 PM 59.0 °F 44.1 °F 58% 30.10 in 10.0 mi WNW 5.8 mph - N/A   Mostly Cloudy
8:53 PM 59.0 °F 46.9 °F 64% 30.11 in 10.0 mi WSW 8.1 mph - N/A   Mostly Cloudy
9:53 PM 59.0 °F 48.0 °F 67% 30.13 in 10.0 mi South 4.6 mph - N/A   Mostly Cloudy
10:53 PM 59.0 °F 48.0 °F 67% 30.14 in 10.0 mi SSW 5.8 mph - N/A   Mostly Cloudy
11:53 PM 59.0 °F 46.9 °F 64% 30.14 in 10.0 mi SW 13.8 mph - N/A   Overcast